Regional Weather Roundup
Issued by NWS

Home | Current Version | Previous Version | Text Only | Print | Product List | Glossary Off
Versions: 1 2 3 4 5 6 7 8 9 10 11 12 13 14 15 16 17 18 19 20 21 22 23 24 25 26 27 28 29 30 31 32 33 34 35 36 37 38 39 40 41 42 43 44 45 46 47 48 49 50

000
ASUS43 KTOP 261608
RWRKS

WEATHER ROUNDUP FOR KANSAS
NATIONAL WEATHER SERVICE GOODLAND KS
1100 AM CDT SUN MAR 26 2017

NOTE:  "FAIR" INDICATES FEW OR NO CLOUDS BELOW 12,000 FEET WITH NO
SIGNIFICANT WEATHER AND/OR OBSTRUCTIONS TO VISIBILITY.

KSZ001>006-013>018-027>032-041>047-261700-
NORTHWEST KANSAS

CITY           SKY/WX    TMP DP  RH WIND       PRES   REMARKS
GOODLAND       CLOUDY    41  41 100 E10       29.84R FOG
HAYS             N/A     44  40  85 E12       29.89S
HILL CITY      CLOUDY    44  42  93 E9        29.90R
RUSSELL        CLOUDY    45  41  86 E8        29.89R
$$

KSZ061>065-074>080-084>089-261700-
SOUTHWEST KANSAS

CITY           SKY/WX    TMP DP  RH WIND       PRES   REMARKS
DODGE CITY     FOG       42  42 100 E13       29.82R VSB 3/4
ELKHART          N/A     49  37  63 NE3         N/A
GARDEN CITY    CLOUDY    40  40 100 E18       29.79S FOG     WCI  31
GREAT BEND     CLOUDY    44  41  89 E13       29.89S
LIBERAL        CLOUDY    46  39  76 E16       29.73S
PRATT          CLOUDY    40  39  93 E15       29.86F FOG     WCI  32
$$

KSZ066>073-081>083-090>101-261700-
SOUTHEAST KANSAS

CITY           SKY/WX    TMP DP  RH WIND       PRES   REMARKS
CHANUTE        CLOUDY    49  45  86 S9        29.96R
COFFEYVILLE    PTSUNNY   52  45  77 SE3       29.96F
HUTCHINSON     CLOUDY    44  42  93 SE8       29.93R FOG
MEDICINE LODGE   N/A     47  42  83 E14G20    29.84F
NEWTON         CLOUDY    43  43 100 SE8       29.94R FOG
PARSONS        CLOUDY    50  44  80 S5        29.97R
WICHITA INTL   CLOUDY    45  44  97 SE6       29.93S FOG
WICHITA JABRA  CLOUDY    44  44 100 S7        29.94R FOG
WICHITA MCCONL CLOUDY    45  44  96 SE6       29.93F
WINFIELD       MOSUNNY   51  44  77 E8        29.93F
$$

KSZ007>012-019>026-033>040-048>060-102>105-261700-
NORTHEAST KANSAS

CITY           SKY/WX    TMP DP  RH WIND       PRES   REMARKS
CONCORDIA      CLOUDY    43  42  97 CALM      29.93R FOG
EMPORIA        CLOUDY    46  45  96 SE5       29.94R
LAWRENCE       CLOUDY    47  43  86 SW7       29.95R
MANHATTAN      CLOUDY    46  42  86 CALM      29.94R
MARYSVILLE     CLOUDY    43  41  93 CALM      29.94R
OLATHE IND     CLOUDY    47  42  83 SW8       29.94R
OLATHE EXE     CLOUDY    46  43  89 W9        29.93S
SALINA         CLOUDY    46  43  89 CALM      29.93S FOG
TOPEKA BILLARD CLOUDY    47  43  86 W5        29.93S
TOPEKA FORBES  CLOUDY    48  43  82 W3        29.94R
$$




USA.gov is the U.S. government's official web portal to all federal, state and local government web resources and services.